Location: Rumah Dana
(3.1167°N, 113.0167°E)
Time: 05:03:17
(UTC+00:00)

USA 306 - Pass Details

Date: 20 January 2026
Orbit: 496 x 519 km, 54.0° (Epoch: 15 February)

Event Time Altitude Azimuth Distance (km) Brightness Sun altitude
Rises 11:27:35 0° 188° (S) 2,594 6.7 -12.5°
Reaches altitude 10° 11:30:23 10° 170° (S) 1,697 5.4 -13.1°
Maximum altitude 11:33:08 18° 126° (SE) 1,220 4.3 -13.8°
Enters shadow 11:33:51 17° 111° (ESE) 1,237 4.2 -14.0°
